Location: Zagreb
(45.8000°N, 16.0000°E)
Time: 19:41:58
(UTC+02:00)

SR - Pass Details

Date: 21 August 2020
Orbit: 583 x 873 km, 66.7° (Epoch: 28 September)

Event Time Altitude Azimuth Distance (km) Brightness Sun altitude
Rises 20:02:20 0° 216° (SW) 2,935 ? -2.3°
Reaches altitude 10° 20:04:41 10° 218° (SW) 1,993 ? -2.7°
Maximum altitude 20:09:08 73° 304° (NW) 631 ? -3.4°
Drops below altitude 10° 20:13:24 10° 30° (NNE) 1,918 ? -4.1°
Sets 20:15:37 0° 32° (NNE) 2,815 ? -4.5°
